User: anonymous   Login
Location: Fort Wayne
(41.1310°N, 85.1290°W)
Time: 10:33:43
(UTC-05:00)
Language:

SR - Orbit

View from above orbital plane
View from above orbital plane
View from above satellite
View from above satellite

Ground track
Ground track

The orbit data is extracted from the following two-line orbital elements,

1 00046U 60007B   18016.16793247  .00000050  00000-0  33246-4 0  9995
2 00046  66.6906 272.8762 0203790  68.7395 293.5342 14.49111272 11112
Epoch (UTC): 16 January 2018 04:01:49
Eccentricity: 0.0203790
inclination: 66.6906°
perigee height: 584 km
apogee height: 873 km
right ascension of ascending node: 272.8762°
argument of perigee: 68.7395°
revolutions per day: 14.49111272
mean anomaly at epoch: 293.5342°
orbit number at epoch: 1111

The dashed part of the orbit path shows where the satellite is in the earth's shadow,  

DLR